Location: Briis
(48.6240°N, 2.1211°E)
Time: 10:33:57
(UTC+00:00)

Cosmos 1125 Rocket - Pass Details

Date: 25 September 2020
Orbit: 758 x 780 km, 74.0° (Epoch: 25 October)

Event Time Altitude Azimuth Distance (km) Brightness Sun altitude
Rises 05:03:23 0° 333° (NNW) 3,267 6.6 -7.3°
Reaches altitude 10° 05:05:49 10° 330° (NNW) 2,332 5.8 -6.9°
Maximum altitude 05:10:59 57° 253° (WSW) 908 3.6 -6.1°
Drops below altitude 10° 05:16:06 10° 176° (S) 2,302 6.0 -5.2°
Sets 05:18:29 0° 172° (S) 3,220 6.8 -4.9°
